Weather History for Fort Payne, AL

Change the Weather History Date:

Tuesday, July 2, 2013

  Actual Average (KRMG) Record (KRMG)
Temperature  
Mean Temperature 74 °F 79 °F  
Max Temperature 84 °F 90 °F 102 °F (2006)
Min Temperature 64 °F 68 °F 57 °F (2000)
Cooling Degree Days 9 14  
Month to date cooling degree days 28  
Year to date cooling degree days 526  
Since 1 June cooling degree days 358  
Growing Degree Days 24 (Base 50)    
Moisture  
Dew Point 63 °F    
Average Humidity 73    
Maximum Humidity 94    
Minimum Humidity 39    
Precipitation  
Precipitation 0.00 in 0.20 in 1.37 in (2007)
Month to date precipitation 0.39  
Year to date precipitation 27.36  
Sea Level Pressure  
Sea Level Pressure 29.99 in    
Wind  
Wind Speed 2 mph (SW)    
Max Wind Speed 12 mph    
Max Gust Speed 9 mph    
Visibility 8 miles    
Events Fog    
T = Trace of Precipitation, MM = Missing Value Source: NWS Daily Summary

Daily Weather History Graph

Daily Weather History Graph

Search for Another Location

Airport:

Trip Planner

Search our weather history database for the weather conditions in past years. The results will help you decide how hot, cold, wet, or windy it might be!

Date:

Astronomy

Jul. 02, 2013 Rise Set
Actual Time 5:34 AM CDT 7:59 PM CDT
Civil Twilight 5:05 AM CDT 8:28 PM CDT
Nautical Twilight 4:29 AM CDT 9:04 PM CDT
Astronomical Twilight 3:49 AM CDT 9:44 PM CDT
Moon 1:29 AM CDT (7/2) 3:18 PM CDT (7/2)
Length of Visible Light 15h 23m
Length of Day
14h 24m
Waning Crescent, 26% of the Moon is Illuminated
Jul 2
Waning Crescent
Jul 8
New
Jul 15
First Quarter
Jul 22
Full
Jul 29
Last Quarter

Hourly Weather History & Observations

Time (CDT) Temp. Heat Index Dew Point Humidity Pressure Visibility Wind Dir Wind Speed Gust Speed Precip Events Conditions
12:15 AM 68.0 °F - 64.4 °F 88% 29.92 in 7.0 mi Calm Calm - N/A   Overcast
12:35 AM 68.0 °F - 64.4 °F 88% 29.92 in 7.0 mi Calm Calm - N/A   Overcast
12:55 AM 68.0 °F - 64.4 °F 88% 29.93 in 5.0 mi Calm Calm - N/A   Overcast
1:15 AM 68.0 °F - 64.4 °F 88% 29.93 in 5.0 mi Calm Calm - N/A   Overcast
1:35 AM 68.0 °F - 64.4 °F 88% 29.92 in 5.0 mi Calm Calm - N/A   Overcast
1:55 AM 68.0 °F - 64.4 °F 88% 29.92 in 4.0 mi Calm Calm - N/A   Mostly Cloudy
2:15 AM 68.0 °F - 64.4 °F 88% 29.92 in 7.0 mi Calm Calm - N/A   Mostly Cloudy
2:35 AM 68.0 °F - 64.4 °F 88% 29.92 in 10.0 mi Calm Calm - N/A   Mostly Cloudy
2:55 AM 68.0 °F - 64.4 °F 88% 29.92 in 10.0 mi Calm Calm - N/A   Mostly Cloudy
3:15 AM 68.0 °F - 64.4 °F 88% 29.93 in 10.0 mi Calm Calm - N/A   Scattered Clouds
3:35 AM 66.2 °F - 64.4 °F 94% 29.93 in 4.0 mi Calm Calm - N/A   Scattered Clouds
3:55 AM 66.2 °F - 64.4 °F 94% 29.93 in 5.0 mi Calm Calm - N/A   Clear
4:15 AM 66.2 °F - 62.6 °F 88% 29.93 in 0.8 mi Calm Calm - N/A   Mostly Cloudy
4:35 AM 64.4 °F - 62.6 °F 94% 29.94 in 1.2 mi Calm Calm - N/A   Mostly Cloudy
4:55 AM 64.4 °F - 62.6 °F 94% 29.95 in 1.2 mi Calm Calm - N/A   Overcast
5:15 AM 64.4 °F - 62.6 °F 94% 29.95 in 0.5 mi Calm Calm - N/A Fog Fog
5:35 AM 64.4 °F - 62.6 °F 94% 29.96 in 0.2 mi Calm Calm - N/A Fog Fog
5:55 AM 64.4 °F - 62.6 °F 94% 29.96 in 0.2 mi Calm Calm - N/A Fog Fog
6:15 AM 64.4 °F - 62.6 °F 94% 29.97 in 0.2 mi Calm Calm - N/A Fog Fog
6:35 AM 64.4 °F - 62.6 °F 94% 29.97 in 0.5 mi North 3.5 mph - N/A Fog Fog
6:55 AM - - - N/A% 29.98 in 1.2 mi Calm Calm - N/A   Scattered Clouds
7:15 AM 66.2 °F - 64.4 °F 94% 29.99 in 7.0 mi Calm Calm - N/A   Mostly Cloudy
7:35 AM 68.0 °F - 64.4 °F 88% 29.99 in 10.0 mi Calm Calm - N/A   Overcast
7:55 AM 68.0 °F - 64.4 °F 88% 29.99 in - Calm Calm - N/A   Mostly Cloudy
8:15 AM 69.8 °F - 66.2 °F 88% 30.00 in 10.0 mi Calm Calm - N/A   Mostly Cloudy
8:35 AM 71.6 °F - 66.2 °F 83% 30.00 in 10.0 mi Calm Calm - N/A   Mostly Cloudy
8:55 AM 71.6 °F - 64.4 °F 78% 30.01 in 10.0 mi Calm Calm - N/A   Overcast
9:15 AM 73.4 °F - 64.4 °F 73% 30.00 in 10.0 mi South 3.5 mph - N/A   Mostly Cloudy
9:35 AM 73.4 °F - 64.4 °F 73% 30.00 in 10.0 mi South 4.6 mph - N/A   Mostly Cloudy
9:55 AM 75.2 °F - 64.4 °F 69% 30.01 in 10.0 mi SSE 4.6 mph - N/A   Scattered Clouds
10:15 AM 77.0 °F - 64.4 °F 65% 30.01 in 10.0 mi South 5.8 mph - N/A   Mostly Cloudy
10:35 AM 78.8 °F - 64.4 °F 61% 30.01 in 10.0 mi SW 5.8 mph - N/A   Mostly Cloudy
10:55 AM 77.0 °F - 64.4 °F 65% 30.01 in 10.0 mi WSW 4.6 mph - N/A   Overcast
11:15 AM 78.8 °F - 64.4 °F 61% 30.01 in 10.0 mi South 5.8 mph - N/A   Mostly Cloudy
11:35 AM 78.8 °F - 64.4 °F 61% 30.01 in 10.0 mi SSW 4.6 mph - N/A   Mostly Cloudy
11:55 AM 78.8 °F - 64.4 °F 61% 30.01 in 10.0 mi WSW 8.1 mph - N/A   Mostly Cloudy
12:15 PM 78.8 °F - 62.6 °F 57% 30.01 in 10.0 mi South 5.8 mph - N/A   Scattered Clouds
12:35 PM 80.6 °F 81.8 °F 62.6 °F 54% 30.01 in 10.0 mi SSW 6.9 mph - N/A   Scattered Clouds
12:55 PM 82.4 °F 82.9 °F 60.8 °F 48% 30.00 in 10.0 mi SSW 9.2 mph - N/A   Scattered Clouds
1:15 PM 82.4 °F 82.9 °F 60.8 °F 48% 30.00 in 10.0 mi SW 8.1 mph - N/A   Scattered Clouds
1:35 PM 82.4 °F 82.9 °F 60.8 °F 48% 29.99 in 10.0 mi SSW 8.1 mph - N/A   Mostly Cloudy
1:55 PM 82.4 °F 82.5 °F 59.0 °F 45% 29.99 in 10.0 mi South 5.8 mph 9.2 mph N/A   Mostly Cloudy
2:15 PM 82.4 °F 82.9 °F 60.8 °F 48% 29.99 in 10.0 mi SW 8.1 mph - N/A   Mostly Cloudy
2:35 PM 82.4 °F 82.5 °F 59.0 °F 45% 29.99 in 10.0 mi WSW 11.5 mph - N/A   Mostly Cloudy
2:55 PM 82.4 °F 81.7 °F 55.4 °F 39% 29.99 in 10.0 mi WSW 11.5 mph - N/A   Mostly Cloudy
3:15 PM 82.4 °F 82.5 °F 59.0 °F 45% 29.98 in 10.0 mi SW 8.1 mph - N/A   Scattered Clouds
3:35 PM 84.2 °F 83.8 °F 59.0 °F 42% 29.98 in 10.0 mi WSW 8.1 mph - N/A   Clear
3:55 PM 82.4 °F 82.5 °F 59.0 °F 45% 29.99 in 10.0 mi WSW 6.9 mph - N/A   Scattered Clouds
4:15 PM 82.4 °F 82.9 °F 60.8 °F 48% 29.99 in 10.0 mi WSW 9.2 mph - N/A   Mostly Cloudy
4:35 PM 80.6 °F 81.5 °F 60.8 °F 51% 29.99 in 10.0 mi SSW 3.5 mph - N/A   Overcast
4:55 PM 82.4 °F 82.9 °F 60.8 °F 48% 29.98 in 10.0 mi SSW 4.6 mph - N/A   Mostly Cloudy
5:15 PM 82.4 °F 82.9 °F 60.8 °F 48% 29.99 in 10.0 mi West 8.1 mph - N/A   Scattered Clouds
5:35 PM 82.4 °F 82.9 °F 60.8 °F 48% 29.99 in 10.0 mi WSW 6.9 mph - N/A   Scattered Clouds
5:55 PM 82.4 °F 82.9 °F 60.8 °F 48% 30.00 in 10.0 mi WSW 6.9 mph - N/A   Clear
6:15 PM 80.6 °F 81.8 °F 62.6 °F 54% 30.00 in 10.0 mi West 5.8 mph - N/A   Clear
6:35 PM 80.6 °F 81.8 °F 62.6 °F 54% 30.00 in 10.0 mi WNW 3.5 mph - N/A   Scattered Clouds
6:55 PM 78.8 °F - 62.6 °F 57% 30.01 in 10.0 mi NNW 3.5 mph - N/A   Clear
7:15 PM 78.8 °F - 62.6 °F 57% 30.02 in 10.0 mi Calm Calm - N/A   Mostly Cloudy
7:35 PM 78.8 °F - 62.6 °F 57% 30.03 in 10.0 mi Calm Calm - N/A   Overcast
7:55 PM 77.0 °F - 64.4 °F 65% 30.04 in 10.0 mi Calm Calm - N/A   Light Drizzle
8:15 PM 73.4 °F - 68.0 °F 83% 30.04 in 10.0 mi Calm Calm - N/A   Overcast
8:35 PM 73.4 °F - 68.0 °F 83% 30.05 in 10.0 mi Calm Calm - N/A   Overcast
8:55 PM 73.4 °F - 68.0 °F 83% 30.05 in 10.0 mi Calm Calm - N/A   Mostly Cloudy
9:15 PM 71.6 °F - 68.0 °F 88% 30.05 in 10.0 mi Calm Calm - N/A   Mostly Cloudy
9:35 PM 71.6 °F - 68.0 °F 88% 30.06 in 10.0 mi Calm Calm - N/A   Mostly Cloudy
9:55 PM 71.6 °F - 66.2 °F 83% 30.06 in 10.0 mi Calm Calm - N/A   Scattered Clouds
10:15 PM 69.8 °F - 66.2 °F 88% 30.06 in 10.0 mi Calm Calm - N/A   Clear
10:35 PM 69.8 °F - 66.2 °F 88% 30.06 in 10.0 mi Calm Calm - N/A   Clear
10:55 PM 68.0 °F - 64.4 °F 88% 30.06 in 7.0 mi Calm Calm - N/A   Clear
11:15 PM 68.0 °F - 64.4 °F 88% 30.06 in 7.0 mi Calm Calm - N/A   Clear
11:35 PM 68.0 °F - 64.4 °F 88% 30.07 in 7.0 mi Calm Calm - N/A   Clear
11:55 PM 68.0 °F - 64.4 °F 88% 30.06 in 7.0 mi Calm Calm - N/A   Clear